This is the latest recevied weather packets stored in our database for station/object DC1RS. If no packets are shown the sender has not sent any weather packets the latest 10 day(s).
| Time | Temp. | Humidity | Pressure | Rain* | Wind** | Luminosity | Snow |
|---|---|---|---|---|---|---|---|
| 1777691901 | 5.56° C | 87% | 1024.8 hPa | 0 mm | - | 0 W/m² | - |
| 1777690310 | 5.56° C | 85% | 1024.7 hPa | 0 mm | - | 0 W/m² | - |
| 1777688780 | 6.67° C | 84% | 1024.7 hPa | 0 mm | - | 0 W/m² | - |
| 1777687491 | 6.67° C | 82% | 1024.8 hPa | 0 mm | - | 0 W/m² | - |
| 1777685900 | 6.67° C | 80% | 1024.9 hPa | 0 mm | - | 0 W/m² | - |
| 1777683321 | 7.78° C | 77% | 1024.7 hPa | 0 mm | - | 0 W/m² | - |
| 1777681731 | 8.33° C | 74% | 1024.9 hPa | 0 mm | - | 0 W/m² | - |
| 1777680141 | 9.44° C | 71% | 1025.1 hPa | 0 mm | - | 0 W/m² | - |
| 1777678522 | 9.44° C | 72% | 1025.1 hPa | 0 mm | - | 0 W/m² | - |
| 1777676301 | 10° C | 70% | 1025.1 hPa | 0 mm | - | 0 W/m² | - |
| 1777674682 | 9.44° C | 73% | 1025.3 hPa | 0 mm | - | 0 W/m² | - |
| 1777673361 | 10.56° C | 70% | 1025.1 hPa | 0 mm | - | 0 W/m² | - |
| 1777672131 | 10.56° C | 69% | 1025 hPa | 0 mm | - | 0 W/m² | - |
| 1777670571 | 11.11° C | 67% | 1025.4 hPa | 0 mm | - | 0 W/m² | - |
| 1777668381 | 12.78° C | 60% | 1025.2 hPa | 0 mm | - | 0 W/m² | - |
| 1777666761 | 12.78° C | 60% | 1025.2 hPa | 0 mm | - | 0 W/m² | - |
| 1777663991 | 13.89° C | 58% | 1025.3 hPa | 0 mm | - | 0 W/m² | - |
| 1777662261 | 15° C | 53% | 1024.8 hPa | 0 mm | - | 0 W/m² | - |
| 1777661961 | 15.56° C | 52% | 1024.6 hPa | 0 mm | - | 0 W/m² | - |
| 1777660731 | 16.67° C | 48% | 1024.6 hPa | 0 mm | - | 0 W/m² | - |
| 1777659171 | 18.33° C | 41% | 1024.3 hPa | 0 mm | - | 8 W/m² | - |
| 1777658021 | 18.89° C | 40% | 1024.4 hPa | 0 mm | - | 19 W/m² | - |
| 1777656432 | 20° C | 37% | 1024.4 hPa | 0 mm | - | 35 W/m² | - |
| 1777653470 | 21.67° C | 34% | 1024.9 hPa | 0 mm | - | 126 W/m² | - |
| 1777652180 | 21.67° C | 34% | 1025 hPa | 0 mm | - | 192 W/m² | - |
* Rain latest hour (hover to see other rain measurements)
** Current wind speed in m/s (hover to see current wind gust speed)